User: anonymous   Login
Location: Huntington Beach
(33.6600°N, 117.9980°W)
Time: 18:57:02
(UTC-07:00)
Language:

Hubble Space Telescope - Orbit

View from above orbital plane
View from above orbital plane
View from above satellite
View from above satellite

Ground track
Ground track

The orbit data is extracted from the following two-line orbital elements,

1 20580U 90037B   16118.75928046  .00000904  00000-0  45520-4 0  9995
2 20580  28.4696 231.7217 0002921  30.9947  97.6328 15.08321284227494
Epoch (UTC): 27 April 2016 18:13:21
Eccentricity: 0.0002921
inclination: 28.4696°
perigee height: 539 km
apogee height: 543 km
right ascension of ascending node: 231.7217°
argument of perigee: 30.9947°
revolutions per day: 15.08321284
mean anomaly at epoch: 97.6328°
orbit number at epoch: 22749

The dashed part of the orbit path shows where the satellite is in the earth's shadow,  

DLR